Total_Precipitation_Accumulation
1.78 1.77 1.63 1.59 1.42 1.52 1.82 2.07 2.00 2.15 2.31 2.20 1.94 1.80 1.70 1.55 1.53 1.48 1.58 1.78 1.67 1.74 2.03 2.10 2.04 1.92 1.85 1.67 1.49 1.39 1.33 1.23 1.03 0.78 0.62 0.59 0.53 0.41 0.34 0.34 0.33 0.31 0.26
1.99 1.97 1.81 1.71 1.44 1.46 1.69 1.97 1.98 2.16 2.18 2.21 1.86 1.72 1.62 1.64 1.61 1.49 1.56 1.73 1.71 1.58 1.72 2.02 2.21 2.27 2.18 2.04 1.80 1.55 1.43 1.34 1.14 0.87 0.68 0.63 0.59 0.52 0.49 0.49 0.43 0.33 0.23
2.21 2.16 2.00 1.73 1.60 1.72 1.80 1.81 1.87 2.25 2.10 1.98 1.79 1.85 1.82 1.75 1.63 1.56 1.56 1.68 1.51 1.45 1.46 1.62 1.92 2.18 2.42 2.43 2.20 1.97 1.69 1.45 1.19 0.92 0.74 0.61 0.55 0.51 0.53 0.52 0.52 0.42 0.28
2.16 2.28 1.96 1.64 1.76 1.92 1.87 1.83 1.89 2.12 2.12 2.21 2.11 1.96 1.84 1.73 1.39 1.32 1.35 1.38 1.47 1.25 1.35 1.59 1.72 1.84 2.25 2.58 2.66 2.61 2.18 1.71 1.31 1.01 0.82 0.68 0.61 0.56 0.49 0.43 0.42 0.44 0.33
1.58 1.60 1.32 1.22 1.43 1.51 1.39 1.34 1.61 1.77 1.81 1.95 1.92 1.71 1.50 1.36 1.21 1.14 1.17 1.02 1.09 1.13 1.17 1.40 1.60 1.66 2.08 2.65 3.14 3.29 2.93 2.31 1.77 1.34 1.14 0.99 0.84 0.67 0.54 0.47 0.43 0.43 0.35
1.16 1.17 0.95 0.90 1.14 1.26 1.21 1.30 1.38 1.39 1.33 1.42 1.31 1.12 1.07 0.93 0.95 0.93 0.82 0.82 0.81 0.81 0.95 1.14 1.39 1.28 1.75 2.39 2.90 3.17 3.19 2.82 2.24 1.84 1.66 1.45 1.26 0.96 0.65 0.51 0.46 0.43 0.35
1.06 1.14 0.96 1.03 1.13 1.15 1.14 1.18 1.19 1.12 0.96 1.11 1.22 1.04 0.85 0.76 0.76 0.67 0.63 0.66 0.61 0.67 0.89 1.08 1.26 1.33 1.28 1.42 1.86 2.31 2.84 3.10 2.73 2.27 2.05 1.86 1.67 1.33 0.93 0.73 0.57 0.47 0.39
0.90 0.96 0.95 0.79 0.82 0.88 0.81 0.84 1.00 1.04 0.88 0.97 1.11 1.08 0.89 0.88 0.77 0.50 0.52 0.55 0.54 0.65 0.82 0.92 1.15 1.32 1.31 1.48 1.21 1.44 2.14 2.70 2.99 2.86 2.51 2.09 1.78 1.47 1.18 1.00 0.78 0.60 0.51
0.65 0.70 0.68 0.68 0.75 0.77 0.80 0.78 0.81 0.87 0.81 0.77 0.89 1.06 0.93 0.77 0.66 0.56 0.50 0.47 0.55 0.70 0.79 0.96 1.04 1.10 1.22 1.45 1.44 1.31 1.61 1.82 2.53 3.05 2.91 2.33 1.73 1.35 1.22 1.22 1.11 0.84 0.69
0.55 0.53 0.54 0.53 0.60 0.66 0.77 0.67 0.68 0.71 0.72 0.64 0.66 0.74 0.75 0.74 0.72 0.62 0.54 0.51 0.55 0.68 0.82 0.91 1.04 1.11 1.11 1.22 1.42 1.33 1.20 1.26 1.69 2.32 2.66 2.54 2.05 1.53 1.28 1.37 1.63 1.53 1.12
0.57 0.52 0.51 0.53 0.51 0.50 0.54 0.58 0.68 0.65 0.65 0.60 0.59 0.63 0.71 0.74 0.72 0.68 0.64 0.58 0.52 0.47 0.60 0.79 0.95 1.05 1.00 1.11 1.36 1.36 1.28 1.18 1.11 1.27 1.71 2.06 2.09 1.82 1.54 1.61 2.06 2.36 2.16
0.63 0.59 0.55 0.58 0.54 0.50 0.52 0.54 0.56 0.56 0.61 0.67 0.64 0.65 0.75 0.78 0.73 0.72 0.67 0.61 0.55 0.47 0.50 0.68 0.93 1.07 1.03 1.06 0.98 0.97 1.01 0.92 0.86 0.87 1.01 1.23 1.52 1.67 1.71 1.84 2.19 2.60 2.85
0.56 0.61 0.63 0.62 0.60 0.59 0.56 0.54 0.52 0.53 0.60 0.68 0.66 0.63 0.66 0.70 0.75 0.76 0.70 0.63 0.65 0.63 0.74 0.77 0.83 0.96 0.94 0.99 0.94 0.79 0.64 0.59 0.56 0.59 0.74 0.91 1.14 1.39 1.55 1.64 1.91 2.25 2.53
0.56 0.62 0.62 0.57 0.55 0.55 0.54 0.57 0.50 0.48 0.58 0.67 0.70 0.79 0.75 0.65 0.77 0.85 0.82 0.83 0.81 0.85 1.00 0.92 0.84 0.84 0.87 0.90 0.82 0.70 0.52 0.47 0.42 0.40 0.45 0.48 0.56 0.70 0.85 1.00 1.18 1.41 1.62
0.64 0.67 0.59 0.58 0.55 0.54 0.55 0.58 0.58 0.60 0.65 0.68 0.77 0.91 0.93 0.85 0.81 0.86 0.93 1.00 1.08 1.05 1.01 0.94 0.84 0.77 0.77 0.76 0.70 0.60 0.48 0.43 0.41 0.37 0.35 0.35 0.37 0.43 0.47 0.52 0.58 0.67 0.75
0.69 0.74 0.70 0.65 0.61 0.59 0.64 0.72 0.70 0.69 0.76 0.83 0.96 1.05 1.07 1.06 1.02 0.94 0.98 1.04 1.08 1.14 1.09 0.89 0.84 0.84 0.77 0.63 0.64 0.57 0.47 0.48 0.43 0.38 0.35 0.32 0.31 0.36 0.40 0.41 0.39 0.41 0.46
0.69 0.71 0.70 0.70 0.67 0.71 0.87 1.07 1.04 0.95 0.97 1.03 1.11 1.22 1.26 1.28 1.26 1.12 1.08 1.05 1.05 1.14 1.07 0.88 0.83 0.85 0.73 0.59 0.55 0.52 0.49 0.47 0.41 0.42 0.37 0.32 0.31 0.31 0.35 0.36 0.35 0.35 0.35
0.68 0.61 0.61 0.65 0.65 0.71 0.87 1.14 1.27 1.26 1.22 1.12 1.18 1.35 1.43 1.37 1.26 1.16 1.15 1.08 1.07 1.16 1.10 0.99 0.99 0.93 0.85 0.74 0.66 0.60 0.51 0.47 0.46 0.52 0.46 0.37 0.33 0.31 0.29 0.29 0.29 0.29 0.30
0.72 0.69 0.68 0.70 0.75 0.77 0.78 0.94 1.14 1.21 1.21 1.15 1.22 1.27 1.29 1.35 1.29 1.22 1.14 1.07 1.06 1.15 1.18 1.09 1.15 1.15 1.03 0.90 0.79 0.67 0.58 0.57 0.47 0.46 0.46 0.41 0.38 0.33 0.30 0.28 0.28 0.27 0.26
0.79 0.78 0.77 0.80 0.82 0.79 0.79 0.90 1.01 1.08 1.12 1.14 1.18 1.22 1.23 1.23 1.28 1.32 1.22 1.16 1.18 1.22 1.24 1.22 1.24 1.37 1.27 1.08 0.92 0.77 0.66 0.61 0.55 0.42 0.43 0.47 0.44 0.38 0.33 0.29 0.27 0.26 0.28
0.84 0.89 0.95 0.93 0.89 0.82 0.75 0.88 0.98 0.97 1.05 1.09 1.08 1.04 1.10 1.26 1.34 1.37 1.25 1.22 1.28 1.27 1.27 1.32 1.33 1.44 1.46 1.29 1.04 0.80 0.72 0.69 0.64 0.55 0.49 0.41 0.39 0.36 0.33 0.33 0.33 0.31 0.28
0.94 1.02 1.06 1.05 0.96 0.77 0.81 0.91 0.93 0.92 0.96 1.00 1.00 0.95 0.92 0.99 1.11 1.19 1.16 1.12 1.17 1.22 1.28 1.32 1.37 1.46 1.52 1.43 1.24 1.05 0.90 0.78 0.73 0.70 0.72 0.63 0.50 0.46 0.39 0.34 0.37 0.37 0.34
1.10 1.09 1.07 1.08 1.05 1.02 0.96 0.87 0.82 0.79 0.84 0.89 0.90 0.86 0.73 0.69 0.87 0.95 1.05 1.08 1.04 1.03 1.08 1.22 1.35 1.39 1.51 1.57 1.48 1.26 1.15 1.03 0.85 0.81 0.85 0.79 0.69 0.58 0.44 0.41 0.47 0.40 0.37
1.29 1.28 1.22 1.23 1.29 1.24 1.14 0.96 0.88 0.77 0.77 0.80 0.81 0.80 0.79 0.78 0.80 0.87 0.97 1.04 1.03 0.98 0.95 0.99 1.13 1.31 1.47 1.62 1.60 1.47 1.38 1.23 1.02 0.90 0.88 0.83 0.75 0.67 0.55 0.49 0.51 0.45 0.40
1.58 1.59 1.54 1.55 1.55 1.56 1.47 1.23 1.10 0.95 0.92 0.89 0.93 0.96 0.95 0.89 0.87 0.80 0.82 0.86 0.89 0.95 0.91 0.90 0.95 1.14 1.31 1.45 1.59 1.53 1.41 1.24 1.04 0.90 0.85 0.78 0.71 0.71 0.65 0.55 0.48 0.46 0.40
1.90 1.89 1.91 1.91 1.85 1.81 1.69 1.37 1.21 1.07 1.09 1.07 1.12 1.09 0.99 0.86 0.76 0.68 0.71 0.76 0.76 0.77 0.85 0.88 0.88 0.95 1.10 1.22 1.37 1.37 1.24 1.20 1.03 0.87 0.74 0.71 0.64 0.68 0.71 0.61 0.53 0.47 0.43